Location: Newark
(59.4564°N, 26.6917°E)
Time: 20:14:11
(UTC+00:00)

SR - Pass Details

Date: 30 November 2019
Orbit: 573 x 882 km, 66.7° (Epoch: 15 December)

Event Time Altitude Azimuth Distance (km) Brightness Sun altitude
Rises 20:06:27 0° 310° (NW) 3,495 ? -47.0°
Enters shadow 20:09:41 - 292° (WNW) 2,616 ? -47.3°
Reaches altitude 10° 20:10:01 10° 289° (WNW) 2,546 - -47.3°
Maximum altitude 20:13:16 15° 255° (WSW) 2,166 - -47.6°
Drops below altitude 10° 20:16:28 10° 222° (SW) 2,492 - -47.9°
Sets 20:19:55 0° 200° (SSW) 3,379 - -48.1°
